This is the latest recevied weather packets stored in our database for station/object WV8BRW. If no packets are shown the sender has not sent any weather packets the latest 1 day(s).
| Time | Temp. | Humidity | Pressure | Rain* | Wind** | Luminosity | Snow |
|---|---|---|---|---|---|---|---|
| 1778085589 | 11.67° C | 99% | 1010.1 hPa | 0 mm | - | 101 W/m² | - |
| 1778085284 | 11.67° C | 99% | 1010.1 hPa | 0 mm | - | 97 W/m² | - |
| 1778084676 | 11.67° C | 99% | 1010.3 hPa | 0 mm | - | 104 W/m² | - |
| 1778083158 | 11.67° C | 99% | 1010 hPa | 0 mm | - | 105 W/m² | - |
| 1778081737 | 11.67° C | 99% | 1009.5 hPa | 0 mm | - | 128 W/m² | - |
| 1778080527 | 12.22° C | 99% | 1009.3 hPa | 0 mm | - | 167 W/m² | - |
| 1778080224 | 12.22° C | 99% | 1009.3 hPa | 0 mm | - | 170 W/m² | - |
| 1778079920 | 11.67° C | 99% | 1009.1 hPa | 0 mm | - | 124 W/m² | - |
| 1778079314 | 11.67° C | 99% | 1009.2 hPa | 0 mm | - | 85 W/m² | - |
| 1778078708 | 11.67° C | 99% | 1008.6 hPa | 0 mm | - | 114 W/m² | - |
| 1778078103 | 11.67° C | 99% | 1008.2 hPa | 0 mm | - | 149 W/m² | - |
| 1778074166 | 15.56° C | 99% | 1007.2 hPa | 0 mm | - | 61 W/m² | - |
| 1778073863 | 15.56° C | 99% | 1007.2 hPa | 1.78 mm | - | 61 W/m² | - |
| 1778070837 | 15° C | 99% | 1006.4 hPa | 0 mm | - | 24 W/m² | - |
| 1778070231 | 15° C | 99% | 1006.5 hPa | 0 mm | - | 19 W/m² | - |
| 1778069626 | 15° C | 99% | 1006.5 hPa | 0 mm | - | 20 W/m² | - |
| 1778069323 | 15° C | 99% | 1006.4 hPa | 0 mm | - | 15 W/m² | - |
| 1778068718 | 14.44° C | 99% | 1006.3 hPa | 0 mm | - | 10 W/m² | - |
| 1778068416 | 14.44° C | 99% | 1006.3 hPa | 0 mm | - | 11 W/m² | - |
| 1778068114 | 14.44° C | 99% | 1006.4 hPa | 0 mm | - | 8 W/m² | - |
| 1778067510 | 14.44° C | 99% | 1006 hPa | 0 mm | - | 8 W/m² | - |
| 1778066298 | 14.44° C | 99% | 1005.8 hPa | 1.78 mm | - | 9 W/m² | - |
| 1778065996 | 14.44° C | 99% | 1005.8 hPa | 0 mm | - | 8 W/m² | - |
| 1778065390 | 14.44° C | 99% | 1005.9 hPa | 1.27 mm | - | 2 W/m² | - |
| 1778064481 | 14.44° C | 99% | 1005.9 hPa | 4.32 mm | - | 0 W/m² | - |
* Rain latest hour (hover to see other rain measurements)
** Current wind speed in m/s (hover to see current wind gust speed)